This is the latest recevied weather packets stored in our database for station/object JS1SZZ-13. If no packets are shown the sender has not sent any weather packets the latest 10 day(s).
| Time | Temp. | Humidity | Pressure | Rain* | Wind** | Luminosity | Snow |
|---|---|---|---|---|---|---|---|
| 1778196073 | 16.11° C | 80% | 1007.1 hPa | 0 mm | - | - | - |
| 1778195173 | 15.56° C | 81% | 1006.8 hPa | 0 mm | - | - | - |
| 1778194272 | 15.56° C | 80% | 1007.1 hPa | 0 mm | - | - | - |
| 1778193372 | 15.56° C | 83% | 1007.1 hPa | 0 mm | - | - | - |
| 1778192472 | 15° C | 88% | 1007.1 hPa | 0 mm | - | - | - |
| 1778191573 | 14.44° C | 88% | 1007.2 hPa | 0 mm | - | - | - |
| 1778190673 | 14.44° C | 89% | 1007.3 hPa | 0 mm | - | - | - |
| 1778189773 | 13.89° C | 90% | 1007.1 hPa | 0 mm | - | - | - |
| 1778188872 | 13.89° C | 90% | 1007.3 hPa | 0 mm | - | - | - |
| 1778188492 | 13.89° C | 91% | 1007.1 hPa | 0 mm | - | - | - |
| 1778187593 | 13.33° C | 91% | 1007.3 hPa | 0 mm | - | - | - |
| 1778186693 | 13.33° C | 92% | 1007.3 hPa | 0 mm | - | - | - |
| 1778185792 | 13.33° C | 92% | 1007.1 hPa | 0 mm | - | - | - |
| 1778184894 | 12.78° C | 92% | 1007 hPa | 0 mm | - | - | - |
| 1778183993 | 13.33° C | 92% | 1007 hPa | 0 mm | - | - | - |
| 1778183092 | 13.33° C | 92% | 1007 hPa | 0 mm | - | - | - |
| 1778182194 | 13.33° C | 92% | 1006.7 hPa | 0 mm | - | - | - |
| 1778181293 | 13.33° C | 91% | 1006.8 hPa | 0 mm | - | - | - |
| 1778180393 | 13.33° C | 92% | 1006.9 hPa | 0 mm | - | - | - |
| 1778179493 | 13.33° C | 92% | 1006.9 hPa | 0 mm | - | - | - |
| 1778178593 | 13.33° C | 92% | 1006.7 hPa | 0 mm | - | - | - |
| 1778177692 | 13.33° C | 92% | 1006.7 hPa | 0 mm | - | - | - |
| 1778176794 | 13.33° C | 92% | 1006.9 hPa | 0 mm | - | - | - |
| 1778175893 | 13.33° C | 91% | 1007.1 hPa | 0 mm | - | - | - |
| 1778174993 | 13.89° C | 91% | 1007.1 hPa | 0 mm | - | - | - |
* Rain latest hour (hover to see other rain measurements)
** Current wind speed in m/s (hover to see current wind gust speed)